Theta_e
316 316 314 314 314 314 314 313 312 311 310 309 310 307 304 301 300 300 295 294 295 295 295 295 295 294 295 294 294 293 293 293 294 295 297 297 298 303 314 317 321 323 323 324 324 323 323 322 321 321 321 320 321 321 321 322 321 320 320 319 319 319 318 318 317 318 318 319 319 319 320 320 320 320 321 322 322 322 322 323 323 324 324 325 324
316 314 315 313 313 314 314 313 312 311 310 309 307 308 303 298 297 297 295 295 295 295 295 294 294 295 294 294 294 294 293 293 293 293 296 297 297 299 310 314 319 322 322 322 323 323 323 322 321 321 321 320 320 320 321 320 320 319 318 318 319 318 317 317 317 317 317 317 318 318 319 319 319 319 320 320 321 321 321 321 322 322 322 321 321
315 315 314 313 312 313 313 312 311 310 310 308 306 307 302 299 296 295 295 294 294 294 293 293 293 294 294 293 293 293 293 293 293 293 297 297 297 298 301 310 315 318 323 320 321 322 322 322 322 321 321 320 320 320 320 319 319 319 318 318 318 317 316 316 316 316 316 316 317 318 318 318 318 318 319 319 319 319 320 320 320 320 320 320 320
315 314 314 311 311 312 312 311 311 309 310 308 304 303 300 297 296 295 294 294 294 293 292 293 293 294 293 292 291 294 292 292 292 292 295 297 297 297 297 301 310 314 317 322 322 321 322 321 322 321 321 321 320 320 319 318 318 318 318 318 318 317 316 315 316 316 316 316 317 317 317 317 317 317 317 317 317 318 318 318 318 319 319 319 319
313 314 312 311 310 311 310 311 310 309 308 306 303 300 297 295 295 295 293 293 293 292 294 293 293 293 293 292 292 292 292 292 292 292 295 297 298 297 297 298 298 306 311 314 319 320 321 321 319 320 320 320 320 319 319 318 318 318 318 318 318 317 316 315 315 315 315 316 316 316 316 316 316 315 316 316 316 316 317 317 317 317 318 318 318
313 311 311 310 310 310 310 309 308 307 306 303 301 297 296 294 294 293 295 293 292 292 291 292 291 291 291 290 290 292 292 292 292 292 293 295 297 296 297 296 296 297 298 307 312 317 319 319 319 318 319 318 319 319 318 318 318 318 317 317 317 316 317 315 314 315 315 315 315 315 315 315 314 314 314 314 315 315 315 315 315 316 316 316 317
311 311 310 310 309 309 308 308 306 304 303 300 299 295 295 294 293 293 292 291 291 292 291 291 291 292 292 292 292 291 290 292 291 292 292 291 293 296 299 297 296 296 296 295 302 310 316 317 318 318 317 317 317 318 318 318 317 317 317 316 317 316 316 316 316 315 315 315 314 314 314 313 313 313 313 313 313 313 314 314 314 315 315 315 316
309 310 309 308 309 309 308 305 303 302 301 297 297 295 294 294 294 293 292 290 291 291 291 290 291 291 291 291 291 292 290 290 291 292 292 290 292 295 297 297 296 295 297 294 295 301 311 314 316 317 317 316 316 316 317 317 317 317 317 316 316 316 315 316 315 315 315 313 313 313 313 312 312 312 312 312 312 313 313 313 314 314 314 314 315
307 308 309 308 307 308 305 304 301 300 298 296 295 294 294 294 293 293 293 291 291 290 290 291 291 291 290 289 290 291 290 291 291 292 291 290 290 290 291 292 296 300 294 293 293 294 305 309 311 312 312 314 315 315 316 317 317 317 317 316 315 316 315 315 315 315 313 312 312 312 311 311 311 311 312 311 311 311 312 312 312 313 313 313 313
306 306 306 307 306 305 303 302 300 298 297 295 295 293 293 294 292 291 291 291 290 290 290 290 291 291 289 289 289 289 289 290 291 293 290 290 290 290 290 290 293 291 292 292 292 293 295 302 306 306 306 310 313 315 316 317 319 319 317 316 315 316 315 315 315 314 312 312 311 311 310 310 311 311 311 310 311 311 311 311 312 312 312 312 313
306 305 306 304 303 302 303 300 299 297 296 295 293 292 293 293 293 291 290 291 291 290 290 290 291 290 290 289 288 288 289 289 291 291 289 290 290 292 290 289 289 289 291 290 290 291 292 292 291 291 294 305 310 312 314 316 315 316 318 316 315 316 315 314 314 312 312 311 310 310 310 310 310 310 310 310 310 310 310 311 311 311 311 312 312
306 304 304 303 302 301 302 299 298 296 296 294 293 292 292 292 292 291 290 288 289 289 290 290 288 288 289 288 289 289 289 289 288 289 290 289 290 291 290 288 288 288 289 289 289 289 290 290 290 290 291 298 304 307 310 311 309 312 317 317 316 316 315 314 313 312 311 310 310 310 309 310 310 310 310 309 309 310 310 311 311 311 311 312 312
306 303 303 302 302 299 300 298 297 296 296 296 294 293 293 292 291 290 290 289 288 288 290 290 288 286 286 287 288 287 289 288 287 288 288 288 288 289 288 289 288 288 288 288 288 287 287 288 289 288 290 289 294 301 304 306 305 309 316 319 316 316 316 314 313 312 310 309 309 309 309 310 309 309 309 309 309 310 310 311 311 311 311 312 312
305 303 302 301 300 298 298 299 297 296 296 295 293 292 290 290 289 288 289 290 289 289 291 290 286 286 285 284 285 285 286 287 288 288 287 288 289 289 288 288 288 288 288 288 288 288 287 287 288 288 287 288 288 289 293 295 297 306 312 316 319 316 315 314 313 312 310 309 309 309 309 309 309 310 309 309 309 309 310 310 311 311 311 312 311
302 302 303 300 300 298 297 297 297 296 294 293 292 291 291 291 289 290 287 287 288 289 290 291 286 284 284 284 281 283 285 286 286 287 289 288 287 288 289 288 288 288 289 288 288 288 288 288 288 288 287 286 286 287 289 293 291 299 306 309 312 317 317 314 314 312 310 308 308 309 309 308 309 309 309 309 309 309 310 310 310 310 311 311 310
301 300 301 300 299 298 296 295 296 295 295 294 292 292 291 290 290 290 289 288 288 289 290 290 286 287 283 285 281 282 281 284 285 285 287 288 287 287 288 288 287 287 288 288 288 288 288 288 288 288 287 286 286 286 288 288 293 299 299 300 304 310 316 315 314 313 310 309 309 308 308 308 308 309 309 309 309 309 309 310 310 310 310 310 310
299 299 299 299 297 297 295 295 295 294 294 294 293 293 291 291 291 290 289 290 288 287 289 289 287 291 288 282 281 282 283 281 283 282 284 285 286 287 287 287 287 287 287 287 287 288 288 287 287 287 288 287 287 286 287 288 291 293 294 297 302 307 309 316 314 313 312 310 310 309 308 308 308 308 308 309 309 309 309 309 309 309 309 309 309
297 298 297 297 297 297 295 294 293 293 294 294 293 291 291 290 291 291 290 289 289 287 287 290 289 288 288 287 286 286 282 282 283 285 282 284 285 286 286 287 287 287 287 286 287 287 287 288 287 287 287 287 287 287 287 287 289 291 290 294 305 308 309 312 314 313 312 311 311 309 308 308 308 308 308 308 308 308 309 309 309 309 309 308 308
297 296 296 296 296 295 295 294 293 292 292 292 292 292 292 291 291 290 290 291 287 287 288 289 288 288 288 288 287 285 284 285 284 280 281 283 283 284 285 285 286 286 287 286 286 286 287 287 287 287 287 287 287 287 287 287 292 293 298 301 307 309 309 312 313 312 312 312 312 310 309 308 308 308 308 307 308 308 308 308 308 308 308 308 308
297 295 295 295 294 295 294 294 293 291 292 292 292 291 291 291 291 291 290 290 289 288 288 287 288 288 289 288 287 287 285 285 283 288 283 280 281 282 283 285 285 286 287 287 286 286 286 286 287 286 287 287 287 287 287 287 288 292 295 302 307 309 309 310 312 309 309 309 311 311 310 309 308 308 307 307 307 307 307 308 308 307 307 307 307
296 296 294 294 294 294 293 293 293 293 290 292 291 291 290 290 290 290 290 289 288 288 287 288 288 288 286 287 286 286 287 286 285 283 283 284 281 281 282 283 284 285 286 287 287 287 287 287 287 287 287 287 287 287 287 287 288 290 295 302 308 310 309 309 307 307 307 308 309 310 310 310 309 308 308 307 307 307 307 307 307 307 307 307 307
294 294 294 293 293 293 293 293 293 293 292 291 289 290 290 289 290 290 290 290 289 288 288 287 288 289 288 288 286 285 286 288 286 284 284 282 286 280 282 282 282 285 287 286 287 286 286 286 286 286 286 286 286 286 286 287 288 290 294 301 306 308 308 306 305 305 305 305 306 307 309 309 309 309 308 307 307 307 307 307 307 307 307 307 307
292 294 293 293 292 292 292 293 292 292 292 291 290 290 290 290 290 289 289 290 290 289 289 288 287 287 287 286 287 287 287 287 288 286 288 286 284 281 280 283 284 284 284 287 287 286 286 286 286 286 286 286 286 286 286 286 289 292 295 299 304 306 306 305 304 302 302 303 304 304 305 306 307 308 308 307 307 307 307 307 307 306 306 306 306
292 291 292 292 292 291 291 291 291 291 292 292 292 291 290 289 288 288 289 289 289 289 289 289 288 287 287 287 287 287 287 288 289 290 288 288 288 286 282 281 282 283 282 284 285 285 286 286 286 286 286 286 286 286 287 287 288 292 293 297 303 305 307 306 304 301 300 301 302 302 303 303 304 304 305 306 307 308 308 308 307 306 306 306 306
291 291 292 292 291 292 292 291 292 292 292 291 291 290 290 289 289 288 288 288 289 289 288 288 288 288 287 287 288 287 287 288 289 288 288 289 286 285 282 281 282 282 282 282 283 285 285 286 286 286 286 286 286 286 286 287 287 291 294 293 300 303 303 304 302 301 300 300 300 300 301 301 301 302 303 304 306 307 308 307 307 306 307 307 306
290 290 291 291 291 291 291 291 291 290 290 290 290 290 290 290 289 288 288 288 288 288 288 288 288 288 287 286 286 287 287 287 287 287 287 287 285 285 284 282 281 282 281 281 281 283 282 285 286 286 285 286 286 286 286 287 286 291 293 292 296 301 301 302 302 301 300 299 300 299 298 299 300 300 301 303 304 306 307 307 306 306 306 307 307
289 290 290 290 290 291 291 290 290 289 289 289 291 290 289 290 289 289 288 288 287 287 287 286 288 287 286 286 286 286 286 286 286 287 287 287 287 286 285 285 282 281 281 280 280 282 283 284 286 285 286 286 286 286 286 286 287 290 292 291 292 298 300 301 302 301 299 299 299 299 298 298 299 300 300 300 302 303 306 306 305 306 306 306 306
289 289 289 289 289 289 289 290 290 289 289 288 288 288 288 288 288 287 287 288 287 286 286 285 286 286 286 287 285 285 285 285 286 287 287 287 287 286 285 286 286 284 280 280 280 281 283 283 282 285 285 286 286 286 287 287 286 290 291 290 291 295 299 300 302 300 299 298 298 298 297 297 298 298 299 299 300 301 301 302 303 303 303 302 302
288 289 289 288 288 288 288 289 289 289 288 288 287 286 286 286 287 286 286 287 286 285 286 285 285 285 286 285 286 287 285 285 285 285 286 286 287 287 287 288 287 286 284 280 281 281 282 283 282 284 286 286 286 285 286 286 287 288 289 289 290 291 296 299 301 300 299 299 298 298 297 297 296 297 298 298 298 298 299 299 299 299 299 299 299
288 288 288 287 287 287 287 287 287 288 288 287 287 287 286 287 286 286 286 286 285 285 285 285 285 285 285 285 285 285 285 285 285 285 285 285 285 286 287 287 288 287 286 284 284 282 282 282 284 283 283 285 286 285 285 286 288 289 288 288 288 289 294 297 299 299 298 299 297 298 297 297 296 296 296 297 297 297 298 298 298 298 298 299 299
287 286 286 286 286 286 286 286 287 287 287 287 287 287 286 286 286 286 286 285 285 285 285 285 285 284 284 284 284 284 284 284 284 284 284 284 285 285 286 287 286 288 287 285 284 283 285 283 283 283 283 284 285 285 285 285 287 288 288 287 287 289 292 294 297 298 297 297 297 297 297 297 296 295 296 296 296 297 297 298 298 298 298 298 299
286 286 286 286 286 285 286 286 286 286 286 287 287 287 287 287 287 286 286 285 285 285 285 285 285 285 284 284 284 284 284 284 284 284 284 284 284 284 284 284 285 286 287 286 284 285 282 285 284 284 283 283 284 284 284 284 286 289 287 287 286 288 288 289 293 295 296 296 297 296 296 296 296 296 296 295 296 297 297 297 297 298 298 298 298
284 284 285 285 285 286 286 286 286 286 286 286 286 286 286 286 286 286 286 286 285 285 285 285 285 284 284 284 284 284 284 283 284 284 284 284 283 284 284 284 284 284 285 285 285 285 283 282 282 283 282 283 282 283 283 283 283 285 287 285 285 284 285 286 287 291 294 296 296 296 296 297 297 296 295 295 295 296 297 297 297 297 297 297 298
283 283 283 284 284 285 285 285 285 285 285 286 286 286 286 286 286 287 286 286 285 285 285 284 285 285 284 284 284 284 284 283 284 284 284 283 283 283 283 283 283 284 284 285 285 285 285 280 280 280 280 282 282 283 283 282 282 284 285 284 284 284 284 284 284 286 293 295 295 296 296 296 297 297 296 295 295 296 296 297 296 296 296 297 296
282 282 282 283 283 283 283 284 284 284 285 285 285 285 285 285 285 285 286 286 285 285 285 285 285 285 284 284 284 284 285 284 284 283 283 283 283 283 284 283 283 284 283 284 284 284 284 282 281 280 280 281 282 282 283 284 283 284 284 283 282 283 284 283 283 284 291 294 295 295 295 295 296 296 296 295 295 295 295 296 296 296 296 295 295
281 281 281 282 282 283 283 283 283 283 283 284 284 285 285 285 285 285 285 285 285 285 285 285 285 285 284 284 284 284 283 283 284 284 283 283 283 283 283 284 283 284 284 282 283 284 283 283 280 280 280 280 281 282 283 283 282 282 283 283 282 281 282 282 282 283 287 293 294 294 294 294 295 295 295 295 295 295 295 295 295 295 295 295 294
281 281 281 281 281 282 282 282 282 282 283 283 284 284 284 284 284 284 284 285 285 285 285 285 286 285 285 285 285 284 283 283 283 283 283 283 283 283 283 283 283 283 284 283 283 283 283 282 281 279 280 280 282 281 282 281 280 281 281 281 281 281 281 281 281 282 285 291 293 292 292 293 294 295 295 295 295 295 295 295 295 295 295 294 293
280 280 280 281 281 281 281 281 282 282 282 283 283 283 284 284 284 284 284 284 284 284 285 285 284 284 285 285 285 284 284 283 284 284 283 283 283 283 283 283 283 283 282 282 282 283 283 283 282 279 278 279 279 279 280 281 280 280 279 279 278 279 279 279 279 280 281 283 285 287 290 291 293 294 294 295 295 295 295 295 295 295 294 293 292
279 279 279 279 280 280 281 281 281 282 282 282 282 283 283 283 283 284 284 283 284 284 284 284 285 284 284 284 284 284 284 284 284 284 284 283 284 283 283 283 283 283 282 282 282 282 282 283 282 280 280 279 280 279 279 281 281 281 280 278 277 278 278 279 279 279 280 281 285 288 288 289 290 291 293 294 294 295 295 295 295 295 293 292 292
279 279 279 279 280 280 280 281 281 281 281 281 282 282 282 282 283 283 283 283 283 283 284 284 284 284 284 284 284 284 284 284 284 284 284 284 284 284 284 284 283 283 282 282 282 282 282 282 283 281 279 279 278 278 279 279 279 278 279 279 278 277 277 279 279 279 280 280 280 282 287 289 289 290 292 293 293 294 294 293 294 293 292 292 292
279 279 279 279 278 278 279 279 280 281 281 281 282 281 281 282 282 282 282 283 283 283 283 283 284 284 284 284 284 285 285 285 286 286 286 286 285 284 284 284 283 283 283 283 283 283 283 283 282 282 278 278 279 279 277 277 278 279 279 279 279 279 279 278 279 280 280 279 279 280 281 284 284 284 286 286 288 291 291 292 292 292 292 292 292
279 279 278 278 278 278 278 278 278 279 280 281 282 285 286 284 282 283 283 283 283 282 282 283 283 283 283 284 284 285 286 286 286 287 288 288 288 286 285 284 283 283 283 283 283 283 283 282 282 282 279 278 279 279 279 279 280 280 279 278 278 278 278 278 278 279 280 279 278 277 279 282 283 282 283 283 285 287 287 289 288 290 291 292 292
279 279 279 279 279 279 279 278 278 279 279 280 283 285 286 286 285 283 282 282 282 282 282 282 282 282 282 283 283 284 285 285 285 287 288 288 288 288 289 288 287 285 283 283 283 283 282 282 283 283 282 281 280 280 280 280 280 279 279 279 278 278 277 276 275 278 279 279 278 277 277 280 281 280 281 281 282 283 285 285 290 291 291 292 292
279 279 278 278 279 279 279 278 278 278 279 282 284 285 285 286 286 283 282 282 282 281 282 282 282 282 281 282 282 283 284 284 284 284 285 287 288 288 288 288 289 289 288 285 283 283 283 282 282 283 283 282 282 281 280 280 279 279 279 279 278 278 278 277 278 278 278 280 278 278 278 280 280 280 279 280 281 281 283 286 290 291 291 292 292
278 277 277 278 277 278 278 277 277 278 278 282 283 284 284 285 285 284 282 282 281 281 281 281 281 281 280 281 281 282 283 285 285 284 283 284 286 287 288 288 288 289 289 290 290 286 285 284 283 283 283 283 283 282 281 280 280 279 279 278 278 279 279 279 279 280 278 280 279 278 277 279 279 278 278 279 280 280 282 286 288 290 291 291 291
276 275 276 276 276 276 276 276 277 277 277 280 282 283 283 283 284 284 282 281 281 281 281 281 281 280 280 280 280 281 282 283 283 283 283 283 283 283 283 284 284 285 287 289 289 289 288 286 284 283 284 285 283 284 282 282 280 279 279 278 279 278 279 279 281 279 279 281 278 279 277 278 279 278 277 279 280 280 280 284 288 290 291 291 290
273 273 273 273 274 274 274 275 275 275 276 279 280 281 282 283 284 284 281 281 281 281 281 281 281 281 281 281 281 281 281 282 282 283 283 283 282 282 282 282 283 283 284 285 285 286 287 287 286 285 285 286 285 285 282 282 282 282 281 280 280 280 280 281 281 280 280 280 280 280 276 278 279 277 278 279 280 280 280 284 288 289 290 290 290
270 270 270 271 271 271 271 272 272 272 273 277 278 279 281 282 283 280 279 279 279 279 279 280 280 281 281 281 281 281 281 281 283 286 286 284 282 281 281 282 282 282 283 285 287 288 287 287 287 287 286 286 287 286 284 282 282 282 282 281 280 279 279 278 278 279 276 279 280 279 277 276 278 278 278 279 279 278 279 280 286 289 289 290 290
267 267 267 268 269 269 269 269 270 270 271 274 276 277 279 280 280 277 277 278 278 278 278 279 280 280 281 281 281 280 281 280 283 286 287 287 283 282 281 281 282 282 282 283 287 288 289 289 289 290 290 290 291 291 290 288 284 283 281 279 278 279 277 276 277 277 275 277 278 279 278 274 277 277 277 277 278 278 278 279 281 288 289 289 289
264 265 265 265 266 266 267 267 268 268 269 271 275 276 277 278 278 275 276 276 276 277 277 278 279 280 280 282 282 280 280 280 284 285 286 285 283 282 281 281 281 281 281 283 284 284 288 289 289 289 289 290 290 291 291 290 288 286 281 278 280 280 277 277 276 277 276 276 277 279 277 274 276 277 275 274 276 277 278 278 279 282 288 288 289
263 263 263 263 263 264 265 266 267 266 266 268 272 273 275 276 274 273 274 274 275 276 276 276 278 278 278 280 281 282 281 282 284 285 286 285 283 282 281 281 280 280 281 283 282 282 283 283 284 285 286 287 287 287 287 289 289 287 282 282 282 280 278 278 278 276 273 275 277 279 276 275 275 276 275 273 271 273 276 277 278 278 281 283 284
Wind_Speed
8 7 7 7 7 7 7 7 7 6 6 6 7 7 6 6 6 5 4 4 4 4 4 4 5 4 5 4 3 3 3 2 2 3 3 2 2 3 5 5 6 5 3 7 7 8 8 7 6 6 6 5 5 5 4 7 6 6 5 3 4 4 4 3 3 4 3 4 4 4 5 6 6 6 6 7 7 7 7 7 7 8 9 9 9
7 6 8 7 7 7 7 7 8 7 7 8 7 7 7 6 6 6 5 5 5 4 5 4 4 4 4 4 4 4 4 4 3 3 3 2 2 2 4 5 5 5 5 4 6 8 8 8 7 7 6 6 6 6 6 4 5 5 4 2 5 4 3 3 3 3 3 4 4 5 6 6 7 6 7 6 7 7 7 7 8 8 8 8 8
7 8 6 7 7 8 8 7 7 8 7 7 6 7 7 8 7 7 7 7 6 5 5 5 4 4 4 4 4 4 4 3 3 3 4 3 2 2 2 5 5 6 6 2 3 4 6 8 8 8 8 7 7 6 6 5 5 5 4 5 5 4 3 3 3 3 4 5 5 6 6 6 6 6 7 6 6 6 7 7 7 7 8 8 8
8 7 7 7 7 7 7 7 7 7 7 7 7 6 7 6 7 6 5 5 6 4 4 6 5 5 4 4 4 5 4 4 4 4 4 3 3 2 2 2 5 6 7 6 5 5 6 3 9 8 8 9 8 8 7 6 6 5 5 5 6 4 4 4 4 4 5 6 6 6 6 6 6 5 5 5 5 5 6 6 6 7 7 7 7
7 8 7 7 6 7 7 7 7 7 7 7 7 6 6 6 6 5 6 5 5 5 4 5 5 5 5 4 5 4 4 4 3 3 4 4 4 3 2 2 2 5 7 7 7 6 5 5 2 7 7 7 8 7 7 7 6 7 7 7 7 6 5 3 4 5 6 6 6 5 5 5 5 4 5 5 5 5 5 5 6 6 7 7 7
7 6 7 7 7 7 7 7 7 6 6 7 7 7 7 7 7 7 6 7 7 6 6 5 4 4 4 4 4 5 4 4 4 4 4 4 4 4 3 2 2 3 3 6 7 7 5 4 4 1 4 5 6 7 6 7 6 7 7 6 6 7 7 5 5 5 6 6 6 5 5 4 4 4 4 4 4 4 5 5 5 6 6 6 7
6 7 7 7 7 7 7 7 6 6 7 7 7 7 7 7 7 7 6 6 6 6 6 6 6 6 6 4 6 5 4 5 4 4 4 3 4 4 4 3 3 3 2 2 4 6 7 4 3 3 2 4 4 6 7 7 7 7 6 5 7 6 7 7 8 7 6 6 5 5 4 5 3 3 3 3 3 4 4 4 4 5 6 6 6
5 6 7 6 7 7 7 6 6 7 7 6 6 8 7 6 6 7 8 6 6 6 5 7 6 6 5 6 5 5 5 4 5 4 4 3 4 5 5 4 4 3 3 3 2 3 6 6 6 5 5 3 3 5 7 7 7 8 8 8 7 7 7 8 8 7 6 5 6 4 5 4 4 3 3 3 3 3 4 4 4 4 5 6 5
5 5 6 6 6 6 6 6 5 6 7 7 7 7 7 7 6 6 7 7 8 7 5 6 6 6 5 5 5 5 5 6 6 6 3 4 4 4 4 4 4 4 4 3 2 2 3 5 5 5 5 4 2 3 6 7 8 8 9 9 7 7 8 9 9 8 7 7 5 5 5 5 4 5 4 4 4 3 3 3 3 4 5 5 5
5 5 5 5 5 5 4 5 5 6 6 6 7 6 6 7 7 6 7 8 8 9 8 6 5 5 5 5 5 4 5 5 5 4 5 5 4 4 5 5 5 4 5 4 4 4 2 2 3 3 3 3 1 1 1 2 3 5 10 9 9 9 10 10 9 9 8 7 6 6 6 5 5 5 5 4 4 4 3 4 4 4 5 4 5
5 5 6 6 5 5 5 5 5 6 6 6 5 6 6 6 9 8 5 7 9 8 8 7 5 4 4 5 4 4 4 4 4 5 5 5 5 4 3 6 5 4 5 4 4 4 4 2 2 1 0 2 1 0 1 1 2 5 5 11 11 11 11 9 9 8 9 8 7 7 7 7 6 6 6 5 4 4 4 4 4 5 5 5 5
5 5 5 6 6 6 6 5 6 6 7 7 7 7 10 9 9 10 8 4 3 6 6 7 4 4 3 1 1 1 2 4 5 5 6 5 5 4 6 5 5 4 5 5 5 4 4 4 3 3 1 1 1 2 2 2 4 5 5 7 12 12 12 11 10 10 9 9 9 8 8 8 7 6 6 6 5 5 6 5 5 5 5 5 5
5 6 7 7 7 6 6 6 6 7 7 9 8 8 6 6 6 4 8 6 5 4 6 7 8 2 2 0 1 1 1 1 5 6 5 5 5 7 6 5 5 5 5 5 5 5 5 5 5 4 4 3 3 3 3 3 3 5 6 5 11 13 13 11 12 11 10 9 9 9 8 9 9 8 7 6 6 6 6 6 6 6 6 5 5
5 5 5 6 6 6 6 7 7 7 8 6 5 5 5 5 4 4 4 8 7 7 8 9 3 7 6 3 2 3 3 3 5 5 5 5 6 6 6 7 7 6 5 5 5 6 5 6 5 5 4 5 4 4 5 3 3 6 6 5 7 12 14 13 12 12 10 10 10 10 10 9 9 9 8 7 7 7 7 7 6 6 6 5 5
4 4 4 4 5 6 6 6 7 7 7 6 6 7 7 8 7 8 6 4 4 4 9 10 7 4 3 4 3 2 4 4 5 6 6 5 5 7 7 6 7 6 6 6 7 6 6 6 6 6 5 5 5 5 4 5 5 4 6 6 8 10 12 15 14 13 11 10 11 11 10 10 10 9 9 8 8 7 7 7 6 5 5 5 5
2 3 3 3 4 5 5 5 6 6 8 8 7 9 8 7 7 8 7 6 5 7 8 9 6 10 4 6 4 3 3 9 10 5 7 6 7 8 6 7 6 6 6 7 7 7 7 6 7 7 6 6 6 5 6 5 6 6 3 5 6 10 12 15 15 15 12 12 12 12 11 10 10 10 9 9 8 8 8 7 6 5 5 6 5
2 3 4 4 4 4 4 4 5 6 6 7 8 9 9 10 11 9 9 10 9 5 7 8 8 11 8 5 2 2 7 3 3 5 3 6 7 6 7 6 7 7 7 7 6 7 7 6 6 5 6 6 5 6 6 5 5 4 5 5 6 8 10 14 18 17 14 13 13 12 12 11 10 10 10 10 9 8 7 7 6 5 5 5 5
1 2 3 3 4 4 4 3 4 4 5 6 7 6 7 8 8 9 10 9 9 6 6 8 8 8 6 4 5 7 5 4 3 5 1 4 4 6 7 7 6 8 7 7 8 7 6 7 6 7 6 6 6 5 6 5 5 5 5 5 9 8 10 14 19 17 14 15 14 13 12 12 11 10 10 10 10 8 7 7 6 6 5 5 5
2 2 2 3 3 3 3 4 4 4 4 5 5 6 7 8 7 7 9 8 5 8 10 10 7 8 8 10 2 0 4 7 7 3 2 2 4 6 7 6 7 7 8 9 8 7 7 7 8 7 7 6 6 6 6 6 6 6 7 8 11 9 9 11 18 19 18 16 16 15 14 13 12 11 10 10 9 8 7 8 7 5 5 5 5
2 2 2 2 3 4 3 3 3 4 4 5 7 6 6 5 6 7 7 7 8 9 8 7 11 10 10 12 9 2 1 2 2 10 5 4 5 3 3 7 6 7 9 9 9 10 9 8 8 8 7 7 7 7 7 6 6 6 7 11 13 10 7 8 13 15 17 17 16 15 14 14 13 12 11 10 9 9 8 8 7 6 5 5 5
2 3 3 2 3 4 4 4 4 4 4 5 5 5 6 7 6 7 7 8 7 7 6 8 8 10 5 10 8 8 5 3 1 1 5 5 5 7 7 1 3 7 9 9 9 9 10 9 9 8 8 8 8 7 7 7 7 7 7 13 15 14 12 12 14 15 16 15 14 14 15 14 14 13 11 11 10 9 9 9 8 7 6 6 6
4 3 3 3 3 3 3 4 5 5 4 4 4 5 5 6 7 7 8 9 7 8 10 7 7 7 7 5 8 7 5 5 4 3 3 3 7 7 8 10 10 11 10 9 12 9 8 8 8 8 8 8 8 8 7 8 7 7 9 14 17 17 16 15 15 16 15 13 13 13 13 13 13 13 13 13 11 11 10 10 9 8 8 7 6
6 6 4 4 3 3 3 4 4 4 4 4 5 6 6 6 6 6 6 8 8 8 8 8 7 7 8 7 9 9 12 11 10 7 8 6 3 5 4 9 13 9 7 12 9 9 8 7 9 9 9 9 8 8 8 8 9 9 12 15 16 17 19 19 18 18 16 16 15 14 13 12 13 13 13 13 13 12 12 11 9 8 8 8 7
8 8 7 6 5 4 3 3 4 4 5 5 5 5 6 5 5 5 6 6 7 8 8 10 9 7 8 8 8 7 8 8 6 7 9 9 9 9 7 4 5 6 3 3 6 8 10 10 10 9 9 8 9 9 8 9 10 15 13 17 16 20 21 21 21 19 18 18 16 16 15 14 13 12 12 13 13 13 12 12 11 9 9 9 8
9 9 9 9 7 6 5 5 4 5 5 4 5 5 5 5 5 5 6 6 7 8 8 9 10 10 9 8 8 8 10 7 6 6 6 6 5 8 4 3 7 5 5 3 6 7 7 9 9 9 9 9 8 9 9 9 9 13 16 13 19 18 20 22 21 21 20 19 18 17 16 15 15 14 13 13 13 13 13 12 11 10 10 10 9
8 8 8 8 8 7 5 5 4 4 4 4 5 5 5 6 5 6 6 7 6 7 9 9 9 10 7 8 8 8 9 7 8 6 7 6 7 8 4 4 2 4 1 3 2 4 5 9 10 9 8 9 10 9 9 11 10 15 18 12 16 19 19 21 22 21 21 20 20 19 18 17 16 16 15 15 14 14 13 13 13 12 11 11 10
8 7 9 8 8 9 9 6 5 4 4 4 5 5 5 5 5 7 7 6 6 7 7 7 9 9 9 9 8 8 7 7 8 9 7 8 8 7 7 8 4 3 5 3 3 8 5 7 9 9 11 10 10 11 12 10 12 16 17 13 11 19 19 24 23 23 21 21 20 20 19 18 17 17 17 16 15 14 14 14 14 13 12 11 11
8 9 9 8 8 8 8 8 7 6 5 4 5 4 5 5 7 6 7 5 7 7 7 7 8 9 10 9 8 9 6 7 7 8 8 8 8 6 7 9 11 11 4 7 5 8 6 6 4 9 10 12 11 11 11 12 10 16 18 11 11 12 21 24 25 23 23 22 22 21 21 19 18 18 17 16 15 14 13 13 13 13 11 10 10
8 7 9 9 8 8 7 8 8 7 7 6 6 5 5 5 6 6 7 7 6 7 7 7 7 8 7 8 9 9 8 7 7 7 8 7 8 8 9 12 9 12 10 8 9 9 7 10 8 10 14 12 11 9 10 11 13 14 12 12 12 11 16 25 25 24 24 23 22 22 21 20 20 19 18 17 16 14 13 11 10 9 8 7 7
6 7 7 9 9 9 8 8 7 7 7 6 6 6 6 6 6 6 7 6 7 7 6 7 8 7 8 8 7 8 7 7 8 7 8 8 8 9 9 10 9 14 13 12 12 9 7 6 9 6 9 12 11 10 11 12 14 16 12 12 12 12 15 24 24 25 24 24 23 23 23 21 21 20 19 18 17 17 16 15 13 12 11 11 11
6 7 7 8 8 8 7 7 8 8 7 7 6 6 6 7 7 7 6 5 6 7 7 6 7 6 7 9 8 8 6 8 8 7 7 7 8 7 8 8 10 13 14 11 14 7 9 10 10 8 8 13 11 11 9 10 13 17 13 12 13 12 16 18 23 24 24 25 24 23 23 23 22 22 21 19 19 18 17 16 15 15 14 14 13
5 5 5 6 7 7 7 7 7 7 7 7 7 6 6 6 6 7 8 6 7 8 8 7 6 6 7 8 9 8 7 7 8 7 8 8 7 8 8 8 10 11 11 12 15 16 7 10 9 12 11 11 12 12 12 10 10 18 12 12 12 15 12 12 21 23 24 24 25 24 24 23 23 23 22 21 20 19 18 18 17 17 16 15 14
3 6 6 7 7 6 7 7 6 7 7 8 6 6 6 7 7 6 7 7 8 8 7 9 7 6 8 8 9 8 6 8 8 7 8 7 8 8 8 8 9 9 10 12 15 16 6 5 5 8 8 8 9 12 12 11 9 11 13 11 10 11 12 12 13 21 23 24 25 24 24 24 24 23 22 21 20 20 19 19 18 17 17 16 15
6 7 6 5 5 7 6 7 6 6 7 7 7 6 6 6 7 6 6 7 8 8 7 8 8 7 7 9 10 8 7 9 9 9 8 8 8 9 9 8 9 9 8 10 13 13 14 4 6 2 5 9 11 10 15 14 13 10 13 12 10 12 12 11 11 12 23 23 24 24 24 24 23 23 22 22 21 20 20 19 19 18 17 17 16
6 6 7 8 8 6 5 5 5 5 6 7 7 7 8 7 7 7 7 7 8 8 8 9 9 8 8 8 9 8 6 8 9 8 8 9 8 9 11 8 10 10 8 10 10 12 13 9 7 7 8 9 13 13 14 13 13 13 14 13 12 11 11 11 11 10 17 25 25 24 24 23 23 23 23 23 22 21 21 20 20 19 18 17 16
6 7 6 8 8 9 10 10 8 6 5 5 6 6 7 8 8 9 8 8 8 8 9 9 9 8 9 10 9 8 8 10 10 8 9 8 9 9 10 10 9 11 8 7 10 11 9 10 7 10 8 9 10 6 9 9 10 10 12 11 8 8 9 9 11 11 14 25 25 23 22 23 23 24 24 24 24 23 22 22 21 20 19 18 17
6 6 6 5 7 7 8 9 10 10 10 9 8 7 6 6 7 8 8 8 8 9 9 9 9 9 9 10 10 7 8 10 10 9 8 10 10 9 11 10 9 9 7 8 10 9 10 11 7 6 5 8 6 6 9 12 9 8 7 10 11 12 11 8 7 7 8 20 22 21 20 22 24 25 25 25 25 24 23 23 22 21 20 20 19
6 6 7 7 6 8 7 7 7 9 9 9 10 10 9 9 7 8 8 8 8 9 9 8 8 8 9 10 10 9 9 10 11 10 9 10 10 11 11 10 9 8 9 9 9 10 11 13 10 6 6 8 6 6 9 11 11 10 8 8 5 7 8 8 9 8 8 9 9 11 16 19 23 26 25 25 25 25 24 23 22 22 21 20 20
8 8 7 8 7 7 8 7 8 9 9 8 9 11 11 10 10 10 9 8 9 8 8 9 9 8 9 9 10 9 10 10 11 11 10 10 10 11 11 11 10 9 11 10 10 11 12 13 11 8 9 8 9 11 8 11 11 13 15 13 10 8 8 11 11 8 7 9 11 14 12 11 12 12 20 24 24 24 23 22 22 23 21 21 20
8 8 9 9 9 7 8 8 9 8 8 9 9 10 10 10 10 11 10 11 11 9 9 9 9 9 9 9 10 10 10 11 11 11 10 11 10 11 10 9 9 10 11 10 10 11 12 12 13 10 8 8 8 4 2 7 10 9 9 10 15 13 13 12 13 13 12 11 11 10 11 12 13 16 21 23 24 24 24 22 23 21 21 21 22
7 8 8 8 9 9 8 9 10 9 9 10 8 8 9 10 9 10 11 12 12 12 11 10 10 10 9 9 10 10 12 14 17 15 14 12 10 10 11 8 9 11 11 10 10 10 11 12 12 10 7 9 10 11 9 12 17 19 12 9 11 11 10 10 12 11 10 12 10 9 10 10 10 10 10 10 12 19 19 21 17 23 21 23 23
8 8 7 8 7 8 8 8 8 8 10 9 13 19 16 12 11 10 11 12 11 11 12 12 12 11 10 10 10 15 17 18 18 18 19 19 19 15 12 9 10 10 11 11 11 11 11 12 13 12 9 11 12 14 14 15 12 6 9 13 14 10 9 11 9 9 10 10 10 11 11 8 10 9 9 11 9 12 10 12 11 13 19 24 24
12 11 10 11 11 10 10 11 11 10 9 10 16 19 22 24 17 13 13 12 12 12 12 13 13 13 12 10 10 12 14 15 15 19 19 20 20 21 22 21 16 13 11 13 13 11 11 12 12 12 13 15 15 12 14 11 10 13 14 14 12 10 13 14 15 8 10 13 12 11 11 11 10 12 11 11 11 11 10 11 16 20 19 23 24
12 10 11 11 12 11 11 12 13 13 12 13 21 22 23 24 21 15 13 12 12 12 12 12 12 12 13 12 11 9 10 11 12 11 14 18 20 21 22 22 22 23 22 16 13 12 12 13 13 14 13 16 15 11 11 10 11 11 10 10 13 16 16 15 14 14 10 18 14 13 15 10 12 12 11 13 11 11 12 15 21 22 22 24 24
13 13 13 13 13 13 12 13 14 14 14 16 24 26 26 26 27 22 13 14 14 14 14 14 13 13 12 12 12 11 10 16 14 12 11 12 16 21 21 22 22 23 24 26 24 18 12 14 15 16 16 15 15 12 12 14 9 13 12 13 14 13 13 15 15 12 5 17 14 14 16 12 13 14 14 13 12 11 12 17 23 23 24 24 23
14 15 15 15 14 13 12 13 14 14 16 18 27 28 28 29 28 24 15 15 15 15 15 15 14 14 14 13 12 12 11 12 11 12 11 12 11 12 12 13 13 16 21 25 25 26 22 17 16 18 17 14 15 10 8 12 14 15 14 15 13 13 13 17 13 3 4 14 19 16 10 9 14 12 14 12 10 11 11 15 24 24 24 24 23
13 14 13 15 14 15 13 13 12 15 14 26 29 30 30 30 30 26 16 15 15 15 16 15 16 15 15 14 14 14 13 13 11 12 12 12 12 11 12 12 13 13 13 14 16 15 15 15 17 19 19 15 14 14 7 13 17 16 16 17 17 16 15 13 8 6 9 12 13 10 15 14 11 12 15 12 11 12 10 16 24 24 25 24 23
12 13 14 14 15 17 16 16 14 18 18 30 31 31 32 30 31 19 15 15 15 16 16 16 16 15 14 15 14 15 15 15 13 19 18 13 12 13 14 13 13 13 13 14 19 18 16 15 15 17 17 16 15 14 10 12 12 12 10 9 8 9 11 11 15 10 7 9 14 13 9 5 11 15 13 9 10 10 10 10 20 25 25 24 23
12 12 12 13 13 14 17 16 16 15 18 26 31 32 32 34 26 16 15 14 14 15 16 16 16 16 15 15 14 14 14 15 15 20 21 21 14 15 14 15 14 13 13 13 18 22 23 24 24 26 27 25 23 23 19 17 14 11 10 10 14 13 13 14 14 10 10 7 10 12 8 3 8 12 8 7 10 10 10 11 11 20 25 24 23
13 12 11 13 13 14 14 16 13 16 16 24 32 31 32 31 27 18 15 13 15 14 15 15 14 14 16 22 20 17 16 17 18 23 23 19 15 15 15 15 16 14 14 13 10 12 20 24 25 27 28 27 25 24 26 21 20 16 14 18 16 12 14 14 17 14 8 7 10 12 7 6 5 6 5 2 3 3 7 7 9 11 20 20 24
13 11 12 12 13 12 11 13 24 22 18 22 30 30 32 30 24 16 14 13 15 14 14 14 15 13 15 17 24 22 19 19 25 26 27 21 15 15 16 15 16 15 15 14 13 11 10 11 14 16 17 20 18 16 17 23 23 19 18 18 13 14 16 17 15 8 7 10 11 13 12 6 9 7 9 6 5 3 3 7 8 9 9 9 12
Wind_Direction
172 174 158 169 163 165 165 167 164 167 160 165 157 158 159 161 168 183 194 204 190 163 145 146 150 151 143 141 142 139 135 126 108 119 122 120 81 26 16 357 354 357 310 211 198 189 197 181 178 174 186 167 168 188 193 154 168 158 165 149 128 111 98 96 105 96 111 114 112 108 108 108 102 100 104 100 100 101 95 91 89 85 75 70 66
171 169 168 170 168 167 169 170 172 170 169 170 174 162 167 167 173 182 181 189 178 178 147 151 151 152 149 150 156 160 160 152 152 134 147 133 104 62 25 13 2 7 358 304 223 200 200 197 181 180 177 179 172 191 176 194 166 168 153 163 132 122 113 110 102 118 105 116 117 113 111 107 108 103 99 106 102 96 92 87 83 81 76 74 66
170 171 175 166 170 171 178 169 172 182 177 171 171 172 168 173 176 178 177 179 179 171 159 158 165 166 169 152 180 148 165 177 169 146 144 146 125 93 39 30 23 20 8 281 250 218 225 203 191 185 185 181 185 188 177 189 189 173 176 156 140 138 122 129 133 131 130 124 127 127 117 114 109 103 95 99 103 96 91 87 83 79 78 72 71
168 172 174 171 173 176 174 176 185 179 183 173 171 174 171 173 171 169 169 167 167 168 168 153 168 176 170 170 166 162 172 175 168 156 149 150 145 120 72 47 35 37 30 38 63 56 38 260 194 199 199 186 183 190 178 187 197 190 183 177 152 154 153 157 148 154 152 145 139 131 125 114 110 109 105 103 100 101 88 81 84 81 79 78 76
175 171 173 172 170 173 179 188 182 178 182 175 164 166 160 160 169 159 156 157 156 174 163 156 157 179 168 176 161 166 174 162 160 137 152 163 162 144 117 86 57 46 41 33 31 57 62 44 162 197 210 197 186 187 187 174 196 208 185 185 166 161 159 148 154 165 159 148 134 131 125 117 106 92 99 97 102 95 89 86 81 82 81 81 82
165 172 169 171 173 179 181 188 183 178 171 165 169 169 166 163 170 159 168 165 174 177 164 168 183 172 175 181 164 175 166 163 168 169 158 172 171 157 156 118 93 76 51 35 29 30 63 74 61 120 203 188 190 183 172 167 191 209 189 187 186 172 159 169 169 164 154 152 144 133 130 133 126 129 110 102 93 93 89 86 88 87 83 81 80
167 164 175 173 176 182 186 188 174 170 169 176 164 171 163 174 163 168 167 170 176 176 173 175 171 179 189 175 179 173 162 173 172 178 180 176 161 177 169 152 135 105 78 65 33 27 33 62 94 95 135 165 175 184 176 181 190 211 204 184 177 175 167 170 178 169 156 158 156 146 142 141 135 115 111 100 101 102 98 98 91 84 79 80 81
167 164 168 180 181 186 191 173 174 166 169 166 161 171 175 168 182 163 163 183 172 186 177 172 177 181 189 177 184 173 168 165 175 180 201 147 171 177 178 170 166 147 128 97 77 36 39 50 67 72 63 77 163 183 184 192 195 207 197 191 181 188 165 180 181 174 155 168 165 164 153 152 153 139 138 133 122 107 98 96 95 88 86 81 79
164 169 168 182 187 189 183 176 167 167 166 171 174 171 166 170 181 187 173 171 180 177 184 176 178 183 181 176 184 174 170 175 177 185 169 169 182 177 164 185 181 166 148 138 114 85 56 58 59 53 37 42 61 192 197 196 206 215 209 185 189 183 184 189 178 165 165 181 167 165 176 167 169 163 153 149 134 128 126 120 108 108 99 97 84
163 167 174 181 182 181 173 174 170 168 171 172 183 162 165 163 179 201 185 165 180 179 185 181 171 175 181 181 187 174 183 183 186 182 170 188 197 182 182 178 171 167 165 161 159 146 110 83 81 62 31 28 89 139 169 21 345 250 208 188 190 192 197 194 178 165 177 178 176 188 188 184 176 170 162 160 154 150 157 139 128 120 114 104 98
165 165 172 172 171 172 175 179 173 172 167 175 174 172 170 178 179 195 208 196 179 185 175 165 162 158 165 187 176 189 198 197 183 181 190 190 191 198 166 180 170 159 167 170 170 163 159 146 127 118 353 349 9 338 296 358 318 321 249 193 196 196 194 188 179 179 179 180 189 195 196 196 183 178 170 175 172 170 162 155 147 140 140 124 115
174 169 173 172 173 181 182 174 177 168 175 180 189 184 188 187 195 184 190 214 201 166 144 139 107 111 133 127 202 194 180 197 186 194 196 192 195 179 184 195 185 176 169 177 173 175 176 179 177 183 202 253 278 288 291 339 338 300 298 223 199 203 190 187 188 186 186 187 195 196 198 197 187 184 180 182 180 179 174 167 160 152 148 137 131
182 171 182 181 186 178 175 181 177 180 186 196 192 200 203 196 187 185 178 183 204 179 170 141 132 81 17 26 296 303 268 198 202 206 204 202 201 186 192 180 202 192 185 171 177 179 184 185 189 191 200 210 245 267 270 275 300 291 275 285 218 205 197 188 194 188 193 199 200 200 201 202 193 188 190 187 187 182 179 173 172 158 150 148 148
193 187 186 184 184 181 184 187 178 191 197 190 189 196 191 193 169 197 215 187 199 184 176 131 185 176 159 227 311 314 292 284 247 238 220 217 203 193 188 190 197 201 192 168 181 187 190 188 184 189 198 200 215 239 248 263 284 276 291 266 272 218 205 200 200 192 199 202 207 201 199 199 198 194 197 191 194 187 187 177 171 168 162 148 129
207 199 194 198 194 187 194 186 187 185 184 192 190 197 197 194 185 191 203 243 210 198 185 193 163 132 104 92 243 212 292 287 266 240 227 216 200 200 195 193 199 195 191 183 187 193 194 186 184 189 193 198 207 218 223 225 224 254 268 292 286 294 239 206 203 198 200 206 213 208 200 199 201 202 198 197 195 197 186 182 173 169 150 143 132
219 220 226 217 204 202 197 187 197 189 190 192 193 203 197 195 194 206 179 194 211 212 209 199 141 141 193 202 208 148 290 242 220 238 206 211 196 207 196 204 197 203 194 198 200 197 198 191 188 190 194 194 201 206 211 212 213 218 249 267 288 269 278 214 204 200 209 207 206 210 202 201 205 204 202 200 201 197 193 183 175 175 145 137 130
221 225 225 228 226 227 208 207 199 200 194 199 199 204 200 199 197 197 190 195 212 213 219 221 211 204 154 104 38 265 222 244 157 269 190 211 222 207 207 202 201 201 202 213 204 202 197 202 201 194 195 194 197 201 205 206 205 205 220 244 254 270 272 251 201 208 205 210 203 208 205 203 204 205 204 204 202 196 190 184 183 171 155 145 141
265 248 250 249 241 235 225 207 218 210 205 210 210 207 211 206 204 199 204 213 203 190 215 235 231 240 240 232 145 181 185 228 124 260 340 244 227 215 212 208 202 202 208 208 206 208 204 204 201 203 197 194 195 196 203 206 203 208 207 224 227 241 242 256 210 203 203 209 205 198 206 206 206 206 207 206 203 199 193 189 182 178 168 159 156
269 272 264 257 260 260 244 229 220 218 221 219 222 217 215 213 206 206 213 212 184 201 208 214 233 261 254 255 290 130 171 129 214 72 290 292 227 220 230 219 211 205 208 210 205 201 211 202 203 202 203 197 192 197 202 204 206 203 208 215 219 217 228 239 210 194 199 206 207 196 198 207 210 207 206 208 205 202 200 195 190 180 172 174 182
228 258 256 266 267 274 264 256 239 231 212 218 223 226 226 232 217 218 217 212 207 212 212 206 199 225 224 243 251 265 300 5 153 183 173 177 250 264 277 227 221 224 214 208 204 205 201 205 201 201 200 201 195 195 201 200 202 204 208 211 211 200 188 200 195 174 190 202 206 196 197 202 205 209 208 208 207 207 203 201 195 186 182 181 190
264 244 246 235 242 250 269 273 264 256 222 236 236 232 225 222 221 221 218 224 216 222 213 218 215 227 210 242 249 246 261 276 9 101 169 193 251 196 217 223 243 245 232 215 211 205 202 200 199 197 198 203 199 196 199 199 201 200 205 207 205 195 176 164 162 167 179 194 195 196 198 200 201 205 206 208 210 211 206 203 197 193 188 191 194
298 286 275 255 240 240 249 255 258 260 253 240 248 249 245 235 226 221 220 224 221 217 223 227 222 231 220 225 224 236 258 272 267 242 301 213 220 199 199 184 203 233 215 216 215 207 201 197 196 198 201 200 200 197 197 203 199 198 205 207 206 197 181 169 165 165 172 180 188 194 197 201 204 204 207 212 209 212 209 206 204 194 196 197 197
329 317 310 300 289 262 242 247 255 268 270 265 246 239 245 240 237 232 227 224 224 227 232 234 227 227 230 222 228 213 216 217 217 211 208 216 221 234 207 205 205 227 227 215 211 209 202 196 199 203 200 200 199 197 197 204 200 200 198 206 208 199 189 183 180 179 180 183 186 187 195 197 203 207 208 211 212 211 210 211 205 202 201 202 200
5 351 333 324 310 292 273 278 272 267 266 257 262 252 252 252 252 240 238 234 236 233 234 235 231 233 233 226 233 231 242 240 235 218 212 226 208 220 200 193 280 249 269 214 211 206 207 203 207 203 201 198 201 199 198 199 208 202 199 206 209 201 195 190 189 187 191 192 190 189 190 192 196 202 207 210 213 213 212 212 209 207 208 206 204
359 359 353 340 326 305 289 265 262 256 258 274 271 271 265 259 254 253 245 239 232 230 233 234 230 230 232 229 228 227 234 236 236 228 237 247 233 243 236 183 214 228 232 154 212 217 208 214 206 208 197 201 199 199 199 200 205 204 198 206 209 203 201 197 192 191 192 193 195 194 195 195 196 198 202 209 214 216 212 211 209 208 210 210 205
352 357 342 344 350 333 299 280 261 266 267 266 271 274 272 264 261 260 255 247 241 238 238 239 240 239 232 234 231 229 234 226 233 226 226 212 234 223 208 241 235 259 307 214 224 168 245 222 213 204 200 199 202 200 201 202 203 205 200 199 209 207 200 199 195 192 192 194 194 193 195 198 200 203 206 210 213 217 215 212 211 208 210 212 212
355 344 348 353 348 347 349 323 293 278 272 274 276 279 277 274 267 260 264 258 251 243 246 244 246 245 242 235 238 235 228 221 220 233 214 216 220 206 185 227 262 244 249 237 254 222 217 224 204 203 204 201 201 203 203 201 202 200 200 198 206 210 197 203 198 194 193 194 195 194 195 196 198 200 202 207 212 214 217 211 211 210 209 212 212
355 354 350 352 348 349 348 347 335 320 303 286 279 277 278 279 277 275 269 267 261 257 251 246 249 248 247 247 243 247 230 227 224 231 223 220 217 209 199 222 233 255 222 251 227 245 220 221 220 214 205 206 206 204 204 198 199 200 197 198 201 207 200 203 201 197 195 194 196 195 196 195 198 200 201 204 209 212 217 218 213 213 214 221 215
358 354 347 348 346 347 345 342 342 337 328 318 306 294 284 277 273 273 273 270 262 260 260 252 252 251 254 248 246 249 239 231 232 231 232 225 221 220 205 219 218 241 244 235 232 221 236 205 201 219 206 206 205 202 196 204 203 192 196 199 199 201 202 202 204 200 197 196 197 197 197 196 198 201 202 203 205 207 207 210 210 212 209 201 192
358 347 347 346 344 346 344 339 336 336 330 322 318 309 306 291 275 267 262 270 272 273 263 254 257 253 255 260 256 255 246 240 237 229 230 228 225 222 223 224 216 231 242 246 253 185 221 221 215 210 200 207 204 200 201 206 201 191 197 198 198 202 201 203 205 202 201 199 199 199 198 197 199 201 202 203 203 204 205 205 205 206 205 203 204
355 353 346 341 340 338 340 337 335 333 329 324 320 316 311 305 295 287 280 270 266 267 266 259 257 251 256 258 259 259 251 248 247 238 237 233 232 225 232 226 226 230 238 238 258 229 178 206 219 213 197 206 199 201 203 207 200 195 197 198 202 198 195 204 205 206 206 204 200 200 199 198 199 201 202 203 204 204 205 204 205 206 207 207 208
344 340 332 330 331 332 332 334 332 332 330 325 324 318 314 298 293 293 284 283 277 270 271 261 259 255 256 257 258 258 258 253 252 244 242 235 229 231 228 227 232 231 233 240 240 250 183 207 203 208 196 193 194 196 204 208 206 198 200 201 201 196 197 206 208 210 210 206 203 200 201 201 200 201 201 202 204 204 204 205 204 206 206 207 209
335 332 328 323 318 317 320 325 330 329 330 327 325 321 316 308 299 286 286 282 276 274 273 275 268 261 259 258 258 256 253 255 256 250 248 241 237 236 231 228 234 227 225 236 244 254 236 233 195 206 194 172 196 199 200 202 196 204 204 203 190 194 200 204 207 211 212 209 207 203 202 202 201 201 201 202 204 205 205 207 206 206 206 206 207
350 334 324 310 299 301 309 311 318 322 322 323 322 324 313 307 300 294 286 280 275 272 270 271 271 264 256 258 262 259 251 251 255 254 248 248 239 240 237 226 233 232 213 227 244 248 249 191 229 207 175 192 200 194 196 193 203 197 203 201 200 198 200 202 204 209 212 210 208 205 204 204 204 203 202 202 203 205 206 207 207 207 208 208 207
321 322 319 320 316 307 294 285 286 301 305 309 312 316 314 307 297 292 286 280 275 274 270 264 264 264 264 257 257 256 256 256 254 249 248 248 244 243 246 231 237 237 220 219 234 246 245 238 203 199 199 192 200 194 201 205 202 194 198 199 200 201 203 200 204 209 209 208 207 205 205 205 205 205 204 203 202 205 206 207 207 207 207 208 209
287 290 300 306 313 315 319 318 316 304 286 276 282 289 295 298 300 297 293 283 275 270 270 272 267 261 259 264 258 250 250 255 256 251 246 242 245 247 250 246 241 244 230 219 226 242 240 239 218 205 200 187 220 212 204 201 191 192 201 205 204 207 206 204 205 205 208 206 205 205 206 208 207 206 205 204 203 204 205 206 206 206 206 206 207
264 270 275 276 283 289 296 304 309 312 311 308 299 286 271 268 274 278 279 281 280 275 269 266 266 263 262 258 262 252 246 252 256 252 248 244 244 244 248 247 245 245 240 225 233 230 241 237 234 217 203 220 225 202 189 184 188 196 202 202 201 203 205 207 208 215 211 212 208 207 209 211 210 208 206 205 204 203 204 205 205 206 205 205 206
275 267 271 274 270 276 273 275 281 288 294 298 297 294 292 288 275 264 263 266 269 271 275 270 263 257 259 261 260 254 248 248 254 251 246 246 245 245 247 247 244 243 241 239 235 239 238 244 232 218 209 204 210 202 193 189 183 190 203 210 198 202 194 201 211 207 202 205 206 211 214 215 213 211 208 207 206 205 204 205 205 206 206 206 206
281 283 277 277 272 265 271 274 276 277 276 277 283 287 289 287 285 283 279 268 260 261 263 265 264 259 254 257 259 254 251 248 251 251 248 248 243 246 244 246 242 241 242 240 235 237 241 246 241 213 211 213 202 204 201 196 201 196 191 185 205 205 200 204 207 205 204 213 221 214 210 207 208 208 211 210 209 207 207 207 207 207 206 204 205
257 259 265 270 275 274 275 277 276 274 273 274 272 271 273 278 282 283 281 280 278 270 262 258 259 258 255 253 253 251 247 248 247 249 244 250 249 250 245 240 240 239 242 241 237 237 240 242 242 231 208 203 216 242 101 179 202 226 219 194 197 192 202 206 205 197 204 203 206 209 213 211 213 213 214 214 211 209 209 209 209 208 207 204 205
253 247 249 252 262 267 267 269 277 278 277 274 271 265 267 269 267 270 274 275 275 276 274 268 258 255 256 253 253 252 249 248 246 245 244 240 244 252 248 238 239 241 242 242 237 236 239 240 244 235 202 207 211 198 186 193 201 208 191 181 213 209 199 200 216 212 200 197 203 203 211 202 200 206 203 207 211 209 211 208 210 211 208 208 206
287 283 275 270 263 263 269 269 265 269 272 274 274 272 266 265 268 268 266 264 265 267 272 274 271 261 253 253 252 250 252 252 252 251 250 248 245 244 248 239 233 239 240 243 239 235 237 239 239 236 220 221 214 208 206 210 207 186 172 195 208 197 182 216 229 217 196 183 193 206 213 201 200 207 203 209 207 208 206 206 205 203 208 208 206
302 298 293 290 289 286 285 285 283 275 270 269 265 267 271 272 273 272 268 266 262 262 262 265 270 272 269 260 256 254 253 254 253 252 250 250 249 249 248 244 237 233 237 240 240 236 237 240 241 236 233 233 225 209 213 207 198 198 199 195 199 183 193 194 215 216 192 184 196 200 216 205 194 205 206 207 205 206 206 209 206 205 204 206 206
307 303 298 292 290 291 290 289 287 285 283 273 275 277 277 276 274 271 270 270 267 263 259 257 258 262 268 271 266 259 250 246 247 249 249 248 248 249 249 248 244 240 236 234 238 239 234 242 243 239 237 238 233 206 208 200 203 204 210 197 199 197 199 208 213 210 194 179 181 198 218 197 195 208 206 212 203 204 207 205 206 206 204 205 205
311 306 299 298 295 293 290 289 287 286 284 282 284 285 285 283 282 280 274 271 271 269 267 264 263 261 257 256 263 261 256 250 247 246 245 247 248 248 249 249 247 244 243 242 240 239 238 240 242 244 236 241 241 222 199 202 180 201 198 206 209 214 214 214 217 215 137 178 183 201 214 195 181 202 212 211 199 202 204 206 205 204 202 202 203
306 304 303 300 298 295 293 292 291 290 286 286 287 288 287 286 285 284 279 277 274 271 270 268 267 265 261 259 257 255 254 252 245 244 242 243 244 246 248 247 246 246 245 245 245 243 240 240 241 247 244 236 243 239 199 181 185 202 199 211 205 212 215 223 226 223 129 179 189 194 214 199 192 194 214 213 189 201 201 201 201 201 200 200 200
306 305 305 305 301 299 295 294 291 289 286 288 290 290 290 290 289 288 285 282 279 277 275 271 267 264 262 260 257 256 255 252 247 240 241 240 241 241 242 244 243 242 242 241 241 241 240 239 243 247 251 243 243 244 197 195 199 202 199 201 201 205 216 231 245 213 186 191 200 192 213 207 168 192 216 196 189 199 196 200 202 200 200 199 197
299 299 294 297 295 297 297 295 293 290 289 291 291 293 293 292 292 290 286 282 280 277 274 273 270 267 264 260 258 257 255 256 249 243 241 240 241 240 241 242 244 242 242 238 239 238 236 237 240 246 248 246 239 241 214 198 206 204 200 206 204 207 213 219 227 212 205 197 196 199 223 199 181 197 205 184 181 197 192 194 203 200 198 196 196
292 292 292 293 293 294 296 297 296 294 293 294 295 295 294 294 294 292 289 284 278 275 272 272 270 268 265 261 258 259 259 260 254 250 246 243 242 240 241 242 243 243 245 244 242 241 240 237 238 241 247 249 245 241 230 192 200 186 187 193 208 196 203 216 230 217 221 189 205 209 218 207 196 192 182 174 189 192 189 194 195 198 195 195 196
295 293 297 296 291 290 290 293 294 296 295 298 300 301 298 297 296 295 295 292 287 282 279 275 274 271 267 264 261 261 261 261 258 254 249 244 245 242 242 241 243 243 245 245 244 238 238 240 240 240 241 244 247 245 241 220 196 179 188 206 207 191 207 211 221 215 209 183 205 195 205 226 159 163 147 102 114 237 200 192 189 198 196 195 197
291 293 293 290 288 287 291 296 300 299 299 300 301 302 300 299 297 292 288 281 281 275 276 275 273 272 272 270 267 263 259 259 257 256 254 247 245 241 242 240 241 241 241 239 237 235 232 233 238 241 243 241 241 241 240 235 211 198 201 211 200 196 206 215 217 197 213 231 205 176 191 210 152 188 153 134 193 270 180 192 189 194 195 182 191